Regional Weather Roundup
Issued by NWS Northern Indiana

Home | Current Version | Previous Version | Graphics & Text | Print | Product List | Glossary On
Versions: 1 2 3 4 5 6 7 8 9 10 11 12 13 14 15 16 17 18 19 20 21 22 23 24 25 26 27 28 29 30 31 32 33 34 35 36 37 38 39 40 41 42 43 44 45 46 47 48 49 50
000
ASUS43 KIWX 281400
RWRIWX

KIWX WEATHER ROUNDUP
NATIONAL WEATHER SERVICE NORTHERN INDIANA
1000 AM EDT FRI AUG 28 2015

NOTE: "FAIR" INDICATES FEW OR NO CLOUDS BELOW 12,000 FEET WITH NO
SIGNIFICANT WEATHER AND/OR OBSTRUCTIONS TO VISIBILITY.

* THESE STATIONS ARE NOT UNDER NWS QUALITY CONTROL. THEY ALSO MAY NOT
  REPORT WEATHER SUCH AS PRECIPITATION OR FOG.

INZ001>027-281500-
NORTHERN INDIANA

CITY           SKY/WX    TMP DP  RH WIND       PRES   REMARKS
GARY*          MOSUNNY   66  57  72 S7        30.15F
KNOX*          SUNNY     64  57  77 SW8       30.17R
SOUTH BEND     SUNNY     64  58  80 S6        30.18R
GOSHEN         SUNNY     65  59  81 S6        30.19R
MONTICELLO*    SUNNY     65  60  82 S6        30.18R
ANGOLA*        SUNNY     63  54  72 CALM      30.20S
FORT WAYNE     MOSUNNY   64  59  83 S3        30.20S
PERU/GRISSOM   SUNNY     67  59  74 S6        30.18R

$$
INZ028>050-281500-
CENTRAL INDIANA

CITY           SKY/WX    TMP DP  RH WIND       PRES   REMARKS
LAFAYETTE      SUNNY     66  58  75 S6        30.18R
KOKOMO*        SUNNY     66  59  77 S6        30.20R
MUNCIE*        SUNNY     66  57  72 SW7       30.20R
INDIANAPOLIS   MOSUNNY   67  56  67 S5        30.18R

$$
MIZ043>046-050>051-056>058-064>065-071>073-077>080-281500-
SOUTHWEST LOWER MICHIGAN

CITY           SKY/WX    TMP DP  RH WIND       PRES   REMARKS
BATTLE CREEK   SUNNY     64  57  78 S8        30.19F
BENTON HARBOR  SUNNY     64  58  80 SE6       30.17R
COLDWATER*     SUNNY     64  59  86 S5        30.19S
HILLSDALE*     SUNNY     64  61  90 S6        30.21S
HOLLAND        SUNNY     63  57  81 S6        30.18S
GRAND RAPIDS   PTSUNNY   63  58  83 S8        30.18S
KALAMAZOO      MOSUNNY   63  57  81 S8        30.19S
STURGIS*       SUNNY     64  59  82 S7        30.19R
THREE RIVERS*  FAIR      64  58  83 CALM      30.19S

$$
OHZ001>008-015>018-024>025-281500-
NORTHWEST OHIO

CITY           SKY/WX    TMP DP  RH WIND       PRES   REMARKS
DEFIANCE       PTSUNNY   65  58  78 CALM      30.21S
FINDLAY        SUNNY     65  58  78 S5        30.20S
TOLEDO EXPRESS SUNNY     64  57  78 E5        30.21S
TOLEDO METCALF SUNNY     66  57  72 S5        30.22R
LIMA           SUNNY     65  58  78 S3        30.21R

$$
AND FOR LAKE MICHIGAN COASTAL AND OPEN LAKE BUOY OBSERVATIONS

STATION/POSITION TEMP    WIND        PRES    VSBY  WAVE
                 AIR SEA DIR/SP/G                  HT/PER
                 (F)     (DEG/KT/KT) (MB)    (MI)  (FT/S)
CALUMET HARBOR    63     180/  6/  7   N/A
MICHIGAN CITY     62     130/ 11/ 12   N/A
BURNS HARBOR      65     180/  6/ 11 1021.3R
SAINT JOSEPH      61     140/  2/  6 1022.4R
SOUTH LAKE BUOY   67 67  180/ 10/ 12 1020.7          2/ 4
4 MI NW BRIDGMAN  63 71  200/ 10/ 12   N/A           1/ 2
MICHIGAN CITY     63 70  180/ 12/ 14   N/A           1/ 2

$$
&&



USA.gov is the U.S. government's official web portal to all federal, state and local government web resources and services.